Starlink 31238

operational
NORAD ID: 58853 Int'l Des: 2024-019 Owner: SPXS Country: US Constellation: starlink
LEOCIRCULAR

关于 Starlink 31238

正在加载描述...

实时位置

正在加载3D地球...

即将过境

高度历史

Altitude vs Time

uPlot chart will show altitude changes over time

两行轨道根数

1 58853U 24019A 25307.55064529 .00003371 00000-0 13197-3 0 9996
2 58853 43.0040 241.0596 0001427 250.0199 110.0499 15.27581177 99791
Epoch: Nov 3, 2025 • Age: 19 hours

当前状态

高度 483.9 km
速度 7.63 km/s
星下点 26.42°N, 101.39°E
发射日期 Jan 29, 2024
运行时间 1.7 years
类型 internet

技术详情

分类 Payload
质量 730.00 kg
干质量 700.00 kg
总质量 730.00 kg
长度 0.30 m
直径 4.10 m
跨度 29.00 m
形状 Box + pan
制造商 SPXS
平台类型 Starlink V2M
阶段状态 In Orbit
所有者/国家 SPXS/US

大型星座

Loading constellations...